Location: Newark
(35.8833°N, 14.5000°E)
Time: 01:17:50
(UTC+00:00)

Tiros 1 - Visible Passes

Search period start: 14 November 2019 00:00
Search period end: 24 November 2019 00:00
Orbit: 630 x 664 km, 48.4° (Epoch: 12 November)

Date Brightness Start Highest point End Pass type
(mag) Time Alt. Az. Time Alt. Az. Time Alt. Az.
14 Nov 8.9 16:35:13 10° WNW 16:38:49 22° NNW 16:42:26 10° NE visible
14 Nov 9.5 18:19:08 10° NW 18:20:39 15° NNW 18:20:39 15° NNW visible
15 Nov 9.1 17:02:21 10° NW 17:05:30 18° N 17:07:53 13° NNE visible
15 Nov 10.0 18:45:19 10° NW 18:45:33 11° NW 18:45:33 11° NW visible
16 Nov 8.9 17:29:05 10° NW 17:32:13 17° N 17:32:48 17° NNE visible
17 Nov 9.0 17:55:18 10° NW 17:57:44 20° N 17:57:44 20° N visible
18 Nov 9.0 16:39:02 10° NW 16:42:07 17° N 16:45:03 11° NE visible
18 Nov 9.3 18:21:14 10° NW 18:22:43 18° NNW 18:22:43 18° NNW visible
19 Nov 8.6 17:05:18 10° NW 17:08:48 21° NNE 17:10:05 19° NE visible
19 Nov 9.8 18:47:07 10° NW 18:47:45 14° NW 18:47:45 14° NW visible
20 Nov 8.1 17:31:14 10° NW 17:35:11 30° NNE 17:35:11 30° NNE visible
21 Nov 8.7 16:15:16 10° NW 16:18:44 20° NNE 16:22:11 10° ENE visible
21 Nov 7.9 17:57:07 10° NW 18:00:25 41° NNW 18:00:25 41° NNW visible
22 Nov 8.2 16:41:15 10° NW 16:45:17 29° NNE 16:48:05 16° ENE visible
22 Nov 8.6 18:23:09 10° WNW 18:25:47 33° WNW 18:25:47 33° WNW visible
23 Nov 7.3 17:07:06 10° NW 17:11:38 50° NNE 17:13:36 30° E visible
23 Nov 9.6 18:49:38 10° WNW 18:51:19 19° W 18:51:19 19° W visible
